• Join FlightAware (Why Join?)
  • Login
  • US Flag 
12:57PM EDT


 

Airport Tracker/Info


-or-


 

Live Flight TrackerFlight Track Log ✈ EJA831 ✈ 29-Apr-2013 ✈ KPSF - KDTS

Flight Track Log - Related Links

Times and Time Zones

All times are in EDT time to prevent confusion due to time zone crossing. See the EJA831 flight status page for this flight to view local times or setup timezone preferences in your user account.

Time Position Orientation Groundspeed Altitude Reporting Facility
EDT Latitude Longitude Course Direction KTS MPH feet Rate Location/Type
02:24PM 42.4178 -73.3231 220° Southwest 200 230 2,400  Level Boston Center
02:25PM 42.3483 -73.4008 220° Southwest 275 316 7,100 3,180 Climbing Boston Center
02:26PM 42.2750 -73.4503 207° Southwest 275 316 10,000 2,700 Climbing Boston Center
02:27PM 42.2039 -73.4856 200° South 269 310 12,500 2,640 Climbing Boston Center
02:28PM 42.1283 -73.5347 206° Southwest 287 330 15,300 2,820 Climbing Boston Center
02:29PM 42.0528 -73.5836 206° Southwest 301 346 18,200 2,640 Climbing Boston Center
02:30PM 41.9731 -73.6353 206° Southwest 307 353 20,600 2,340 Climbing Boston Center
02:31PM 41.8892 -73.6922 207° Southwest 325 374 22,900 1,800 Climbing Boston Center
02:32PM 41.8050 -73.7492 207° Southwest 355 409 24,300 1,920 Climbing Boston Center
02:33PM 41.7189 -73.8028 205° Southwest 355 409 26,800 2,100 Climbing Boston Center
02:34PM 41.6286 -73.8619 206° Southwest 355 409 28,600 2,580 Climbing Boston Center
02:35PM 41.5447 -73.9183 207° Southwest 350 403 32,000 2,700 Climbing Boston Center
02:37PM 41.4533 -73.9792 207° Southwest 313 360 34,700 1,740 Climbing New York Center
02:38PM 41.3792 -74.0281 206° Southwest 298 343 36,000 1,200 Climbing New York Center
02:39PM 41.3267 -74.1139 231° Southwest 286 329 37,200 1,080 Climbing New York Center
02:40PM 41.2639 -74.1964 225° Southwest 304 350 38,200 1,020 Climbing New York Center
02:41PM 41.1928 -74.2839 223° Southwest 314 361 39,300 780 Climbing New York Center
02:42PM 41.1256 -74.3656 222° Southwest 324 373 39,800 600 Climbing New York Center
02:43PM 41.0583 -74.4556 225° Southwest 335 386 40,500 840 Climbing New York Center
02:44PM 40.9908 -74.5428 224° Southwest 340 391 41,500 840 Climbing New York Center
02:45PM 40.9278 -74.6269 225° Southwest 340 391 42,300 540 Climbing New York Center
02:46PM 40.8625 -74.7083 223° Southwest 340 391 42,700 240 Climbing New York Center
02:47PM 40.7972 -74.7950 225° Southwest 340 391 42,900 120 Climbing New York Center
02:48PM 40.7275 -74.8814 223° Southwest 340 391 43,000  Climbing New York Center
02:49PM 40.6597 -74.9703 225° Southwest 346 398 43,000  Level New York Center
02:50PM 40.5878 -75.0589 223° Southwest 346 398 43,000  Level New York Center
02:51PM 40.5178 -75.1500 225° Southwest 352 405 43,000  Level New York Center
02:52PM 40.4456 -75.2464 225° Southwest 357 411 43,000  Level New York Center
02:53PM 40.3689 -75.3419 224° Southwest 368 423 43,000  Level New York Center
02:54PM 40.2944 -75.4325 223° Southwest 373 429 43,000  Level New York Center
02:55PM 40.2197 -75.5281 224° Southwest 373 429 43,000  Level New York Center
02:56PM 40.1450 -75.6206 223° Southwest 373 429 43,000  Level New York Center
02:57PM 40.0683 -75.7156 223° Southwest 373 429 43,000  Level New York Center
02:59PM 39.8881 -75.9403 224° Southwest 372 428 43,000  Level Washington Center
03:00PM 39.8211 -76.0211 223° Southwest 372 428 43,000  Level Washington Center
03:01PM 39.7458 -76.1150 224° Southwest 372 428 43,000  Level Washington Center
03:02PM 39.6703 -76.2061 223° Southwest 372 428 43,000  Level Washington Center
03:03PM 39.5928 -76.2944 221° Southwest 372 428 43,000  Level Washington Center
03:04PM 39.5214 -76.3878 225° Southwest 372 428 43,000  Level Washington Center
03:05PM 39.4436 -76.4783 222° Southwest 372 428 43,000  Level Washington Center
03:06PM 39.3639 -76.5686 221° Southwest 377 434 43,000  Level Washington Center
03:07PM 39.2817 -76.6667 223° Southwest 377 434 43,000  Level Washington Center
03:08PM 39.2036 -76.7567 222° Southwest 371 427 43,000  Level Washington Center
03:09PM 39.1278 -76.8519 224° Southwest 371 427 43,000  Level Washington Center
03:10PM 39.0517 -76.9414 222° Southwest 371 427 43,000  Level Washington Center
03:11PM 38.9778 -77.0308 223° Southwest 371 427 43,000  Level Washington Center
03:12PM 38.9017 -77.1200 222° Southwest 371 427 43,000  Level Washington Center
03:13PM 38.8233 -77.2117 222° Southwest 371 427 43,000  Level Washington Center
03:14PM 38.7492 -77.3006 223° Southwest 371 427 43,000  Level Washington Center
03:15PM 38.6728 -77.3892 222° Southwest 371 427 43,000  Level Washington Center
03:16PM 38.5964 -77.4778 222° Southwest 371 427 43,000  Level Washington Center
03:17PM 38.5197 -77.5686 223° Southwest 371 427 43,000  Level Washington Center
03:18PM 38.4433 -77.6594 223° Southwest 371 427 43,000  Level Washington Center
03:19PM 38.3667 -77.7472 222° Southwest 371 427 43,000  Level Washington Center
03:20PM 38.2900 -77.8378 223° Southwest 371 427 43,000  Level Washington Center
03:21PM 38.2217 -77.9150 222° Southwest 371 427 43,000  Level Washington Center
03:22PM 38.1469 -78.0050 223° Southwest 371 427 43,000  Level Washington Center
03:23PM 38.0681 -78.0947 222° Southwest 371 427 43,000  Level Washington Center
03:24PM 37.9928 -78.1897 225° Southwest 366 421 43,000  Level Washington Center
03:25PM 37.9239 -78.2875 228° Southwest 361 415 43,000  Level Washington Center
03:26PM 37.8572 -78.3850 229° Southwest 371 427 43,000  Level Washington Center
03:27PM 37.7967 -78.4722 229° Southwest 376 433 43,000  Level Washington Center
03:28PM 37.7275 -78.5692 228° Southwest 376 433 43,000  Level Washington Center
03:29PM 37.6606 -78.6664 229° Southwest 376 433 43,000  Level Washington Center
03:30PM 37.5933 -78.7606 228° Southwest 376 433 43,000  Level Washington Center
03:31PM 37.5175 -78.8647 227° Southwest 376 433 43,000  Level Washington Center
03:32PM 37.4500 -78.9639 229° Southwest 371 427 43,000  Level Washington Center
03:33PM 37.3808 -79.0550 226° Southwest 371 427 43,000  Level Washington Center
03:34PM 37.3111 -79.1536 228° Southwest 376 433 43,000  Level Washington Center
03:35PM 37.2436 -79.2497 229° Southwest 376 433 43,000  Level Washington Center
03:36PM 37.1764 -79.3297 223° Southwest 376 433 43,000  Level Washington Center
03:37PM 37.1047 -79.4228 226° Southwest 376 433 43,000  Level Washington Center
03:38PM 37.0306 -79.5178 226° Southwest 381 438 43,000  Level Washington Center
03:39PM 36.9567 -79.6078 224° Southwest 386 444 43,000  Level Washington Center
03:40PM 36.8847 -79.7000 226° Southwest 386 444 43,000  Level Washington Center
03:42PM 36.7544 -79.8544 224° Southwest 386 444 43,000  Level Atlanta Center
03:43PM 36.6883 -79.9381 225° Southwest 381 438 43,000  Level Atlanta Center
03:44PM 36.6144 -80.0300 225° Southwest 381 438 43,000  Level Atlanta Center
03:45PM 36.5422 -80.1214 225° Southwest 381 438 43,000  Level Atlanta Center
03:46PM 36.4658 -80.2103 223° Southwest 376 433 43,000  Level Atlanta Center
03:47PM 36.3856 -80.3122 226° Southwest 376 433 43,000  Level Atlanta Center
03:48PM 36.3131 -80.3981 224° Southwest 371 427 43,000  Level Atlanta Center
03:49PM 36.2383 -80.4889 224° Southwest 371 427 43,000  Level Atlanta Center
03:50PM 36.1658 -80.5769 224° Southwest 371 427 43,000  Level Atlanta Center
03:51PM 36.0956 -80.6700 227° Southwest 366 421 43,000  Level Atlanta Center
03:52PM 36.0206 -80.7578 223° Southwest 372 428 43,000  Level Atlanta Center
03:53PM 35.9539 -80.8375 224° Southwest 372 428 43,000  Level Atlanta Center
03:54PM 35.8811 -80.9275 225° Southwest 372 428 43,000  Level Atlanta Center
03:55PM 35.8083 -81.0147 224° Southwest 364 419 43,000  Level Atlanta Center
03:56PM 35.7353 -81.1019 224° Southwest 369 425 43,000  Level Atlanta Center
03:57PM 35.6436 -81.1969 220° Southwest 375 432 43,000  Level Atlanta Center
03:58PM 35.5728 -81.2864 226° Southwest 380 437 43,000  Level Atlanta Center
03:59PM 35.4978 -81.3858 227° Southwest 380 437 43,000  Level Atlanta Center
04:00PM 35.4244 -81.4722 224° Southwest 385 443 43,000  Level Atlanta Center
04:01PM 35.3572 -81.5508 224° Southwest 379 436 43,000  Level Atlanta Center
04:02PM 35.2839 -81.6394 225° Southwest 373 429 43,000  Level Atlanta Center
04:03PM 35.2083 -81.7306 225° Southwest 367 422 43,000  Level Atlanta Center
04:04PM 35.1369 -81.8189 225° Southwest 373 429 43,000  Level Atlanta Center
04:05PM 35.0614 -81.9097 225° Southwest 373 429 43,000  Level Atlanta Center
04:06PM 34.9878 -82.0006 225° Southwest 373 429 43,000  Level Atlanta Center
04:07PM 34.9058 -82.0936 223° Southwest 373 429 43,000  Level Atlanta Center
04:08PM 34.8300 -82.1839 224° Southwest 368 423 43,000  Level Atlanta Center
04:09PM 34.7561 -82.2742 225° Southwest 373 429 43,000  Level Atlanta Center
04:10PM 34.6883 -82.3539 224° Southwest 381 438 43,000  Level Atlanta Center
04:11PM 34.6144 -82.4461 226° Southwest 381 438 43,000  Level Atlanta Center
04:12PM 34.5364 -82.5358 223° Southwest 381 438 43,000  Level Atlanta Center
04:13PM 34.4603 -82.6256 224° Southwest 381 438 43,000  Level Atlanta Center
04:14PM 34.3839 -82.7147 224° Southwest 386 444 43,000  Level Atlanta Center
04:15PM 34.3056 -82.8067 224° Southwest 392 451 43,000  Level Atlanta Center
04:16PM 34.2231 -82.9058 225° Southwest 387 445 43,000  Level Atlanta Center
04:17PM 34.1467 -82.9972 225° Southwest 392 451 43,000  Level Atlanta Center
04:18PM 34.0661 -83.0883 223° Southwest 392 451 43,000  Level Atlanta Center
04:19PM 33.9894 -83.1769 224° Southwest 392 451 43,000  Level Atlanta Center
04:20PM 33.9128 -83.2678 225° Southwest 392 451 43,000  Level Atlanta Center
04:21PM 33.8361 -83.3561 224° Southwest 392 451 43,000  Level Atlanta Center
04:22PM 33.7614 -83.4442 224° Southwest 392 451 43,000  Level Atlanta Center
04:23PM 33.6847 -83.5294 223° Southwest 392 451 43,000  Level Atlanta Center
04:24PM 33.6161 -83.6097 224° Southwest 392 451 43,000  Level Atlanta Center
04:25PM 33.5392 -83.7000 224° Southwest 392 451 43,000  Level Atlanta Center
04:26PM 33.4600 -83.7847 222° Southwest 387 445 43,000  Level Atlanta Center
04:27PM 33.3850 -83.8722 224° Southwest 387 445 43,000  Level Atlanta Center
04:28PM 33.3100 -83.9592 224° Southwest 382 440 43,000  Level Atlanta Center
04:29PM 33.2244 -84.0561 223° Southwest 377 434 43,000  Level Atlanta Center
04:30PM 33.1492 -84.1431 224° Southwest 382 440 43,000 -600 Level Atlanta Center
04:31PM 33.0719 -84.2322 224° Southwest 382 440 41,800 -1,500 Descending Atlanta Center
04:32PM 32.9944 -84.3186 223° Southwest 382 440 40,000 -1,800 Descending Atlanta Center
04:33PM 32.9211 -84.4000 223° Southwest 375 432 38,200 -1,800 Descending Atlanta Center
04:34PM 32.8478 -84.4839 224° Southwest 375 432 36,400 -1,140 Descending Atlanta Center
04:35PM 32.7828 -84.5578 224° Southwest 370 426 36,000 -240 Descending Atlanta Center
04:36PM 32.7075 -84.6411 223° Southwest 370 426 36,000  Level Atlanta Center
04:37PM 32.6317 -84.7269 224° Southwest 370 426 36,000  Level Atlanta Center
04:38PM 32.5583 -84.8078 223° Southwest 370 426 36,000 -300 Level Atlanta Center
04:39PM 32.4742 -84.8956 221° Southwest 370 426 35,500 -540 Descending Atlanta Center
04:40PM 32.4006 -84.9761 223° Southwest 370 426 35,000 -480 Descending Atlanta Center
04:41PM 32.3225 -85.0614 223° Southwest 370 426 34,600 -540 Descending Atlanta Center
04:42PM 32.2678 -85.1247 224° Southwest 364 419 34,000 -300 Descending Atlanta Center
04:43PM 32.1792 -85.2217 223° Southwest 364 419 34,000 -480 Level Atlanta Center
04:44PM 32.1056 -85.3017 223° Southwest 364 419 33,100 -1,200 Descending Atlanta Center
04:45PM 32.0294 -85.3864 223° Southwest 364 419 31,600 -1,560 Descending Atlanta Center
04:46PM 31.9533 -85.4683 222° Southwest 374 430 30,000 -1,500 Descending Atlanta Center
04:48PM 31.7431 -85.6969 223° Southwest 398 458 26,100 -1,500 Descending Jacksonville Center
04:49PM 31.6658 -85.7825 223° Southwest 393 452 24,600 -1,080 Descending Jacksonville Center
04:50PM 31.5847 -85.8678 222° Southwest 393 452 24,000 -780 Descending Jacksonville Center
04:51PM 31.5056 -85.9481 221° Southwest 393 452 23,100 -1,500 Descending Jacksonville Center
04:52PM 31.4225 -86.0161 215° Southwest 383 441 21,100 -1,980 Descending Jacksonville Center
04:53PM 31.3414 -86.0864 217° Southwest 372 428 19,200 -1,740 Descending Jacksonville Center
04:54PM 31.2622 -86.1542 216° Southwest 366 421 17,700 -1,260 Descending Jacksonville Center
04:55PM 31.1794 -86.2119 211° Southwest 360 414 16,700 -1,080 Descending Jacksonville Center
04:56PM 31.0850 -86.2303 189° South 348 400 15,600 -1,560 Descending Jacksonville Center
04:57PM 30.9908 -86.2392 185° South 335 386 13,600 -2,400 Descending Jacksonville Center
04:58PM 30.9128 -86.2656 196° South 310 357 10,900 -2,580 Descending Jacksonville Center
04:59PM 30.8453 -86.2919 199° South 285 328 8,500 -2,100 Descending Jacksonville Center
05:00PM 30.7839 -86.3286 207° Southwest 264 304 6,800 -1,680 Descending Jacksonville Center
05:01PM 30.7211 -86.3358 186° South 239 275 5,200 -900 Descending Jacksonville Center
05:02PM 30.6578 -86.3553 195° South 233 268 5,000 -120 Descending Jacksonville Center
05:03PM 30.5933 -86.3506 176° South 233 268 5,000  Level Jacksonville Center
05:05PM 30.4901 -86.4126 207° Southwest  Level FlightAware Approximate
05:12PM 30.4000 -86.4667 198° South  Level FlightAware Approximate
05:13PM 30.4000 -86.4715 198° South  Level Estimated
05:14PM 30.4000 -86.4667 198° South  Level FlightAware Approximate
05:15PM 30.4000 -86.4715 198° South  Level Estimated
05:16PM 30.4000 -86.4667 198° South  Level FlightAware Approximate
05:17PM 30.4000 -86.4715 198° South  Level Estimated
05:18PM 30.4000 -86.4667 198° South  Level FlightAware Approximate